Date,TemperatureHighF,TemperatureAvgF,TemperatureLowF,DewpointHighF,DewpointAvgF,DewpointLowF,HumidityHigh,HumidityAvg,HumidityLow,PressureMaxIn,PressureMinIn,WindSpeedMaxMPH,WindSpeedAvgMPH,GustSpeedMaxMPH,PrecipitationSumIn
2013-1-1,70,61,50,70,58,44,99,87,73,30.20,29.86,22,11,27,0.05
2013-1-2,50,44,41,43,40,37,96,86,73,30.33,30.17,14,8,18,0.18
2013-1-3,52,46,43,40,36,30,90,69,44,30.42,30.30,13,8,17,0.01
2013-1-4,52,50,46,40,38,36,73,64,57,30.46,30.35,14,9,19,0.00
2013-1-5,51,48,44,48,44,39,97,87,71,30.39,30.27,13,8,18,0.06
2013-1-6,66,52,41,49,45,40,99,78,41,30.39,30.27,11,5,17,0.00
2013-1-7,65,53,40,56,48,38,99,85,63,30.33,30.01,12,7,16,0.01
2013-1-8,69,62,56,68,62,55,99,99,96,30.00,29.77,17,9,28,0.18
2013-1-9,68,63,56,68,62,56,99,97,89,30.06,29.81,14,6,17,0.30
2013-1-10,71,56,51,56,53,50,99,91,47,30.11,30.01,10,5,14,0.00
2013-1-11,80,71,50,71,68,50,99,91,72,30.05,29.81,20,12,27,0.00
2013-1-12,81,74,70,74,72,70,99,94,74,29.84,29.62,23,15,30,0.00
2013-1-13,73,55,48,73,45,36,99,71,43,30.11,29.69,23,13,29,0.06
2013-1-14,50,47,44,43,38,35,95,73,61,30.20,30.08,15,9,21,0.00
2013-1-15,45,44,42,44,42,37,99,94,81,30.25,30.05,14,10,19,0.08
2013-1-16,59,46,36,37,26,8,81,51,13,30.41,30.23,19,8,28,0.00
2013-1-17,69,52,37,41,33,27,76,52,24,30.49,30.33,14,6,19,0.00
2013-1-18,67,52,41,50,41,36,91,68,45,30.53,30.33,12,5,17,0.00
2013-1-19,76,60,48,55,49,46,96,72,38,30.32,30.15,11,4,11,0.00
2013-1-20,76,61,49,58,53,47,95,77,48,30.26,30.09,14,4,14,0.00
2013-1-21,73,62,54,60,53,43,93,74,36,30.25,30.12,14,5,14,0.00
2013-1-22,75,62,51,60,54,49,95,78,46,30.31,30.19,13,6,13,0.00
2013-1-23,81,68,54,66,62,52,95,81,55,30.34,30.21,13,9,17,0.00
2013-1-24,83,69,60,67,63,59,99,83,47,30.30,30.12,15,9,23,0.00
2013-1-25,83,70,60,68,64,59,99,85,56,30.17,30.02,17,11,22,0.01
2013-1-26,81,70,63,68,63,56,99,80,45,30.14,30.03,19,11,27,0.00
2013-1-27,78,72,65,72,68,62,99,90,75,30.08,29.95,21,13,35,0.00
2013-1-28,80,74,71,72,71,70,98,91,72,30.07,29.89,25,17,31,0.00
2013-1-29,90,77,69,72,67,40,99,75,34,29.89,29.56,30,18,36,0.00
2013-1-30,69,61,49,41,17,2,37,19,10,30.26,29.76,24,12,34,0.00
2013-1-31,74,56,41,45,27,10,63,37,10,30.35,30.21,15,6,19,0.00
2013-2-1,74,64,54,53,46,33,78,56,23,30.36,30.21,14,6,21,0.00
2013-2-2,81,67,59,61,57,52,88,73,45,30.25,30.15,11,5,17,0.00
2013-2-3,78,66,55,62,58,53,97,79,45,30.31,30.02,11,6,14,0.00
2013-2-4,83,70,62,66,63,58,91,79,51,30.03,29.78,19,9,25,0.00
2013-2-5,90,72,61,70,64,52,98,78,28,29.97,29.83,12,6,15,0.00
2013-2-6,72,68,62,72,67,62,99,96,86,30.00,29.81,17,10,22,0.43
2013-2-7,77,67,60,70,65,60,99,93,78,29.99,29.88,8,4,11,0.00
2013-2-8,74,64,56,65,56,50,99,76,43,30.21,29.99,13,7,19,0.00
2013-2-9,74,68,61,72,67,59,99,94,90,30.08,29.78,20,12,28,0.04
2013-2-10,86,72,66,74,61,35,99,72,29,29.93,29.73,19,12,24,0.00
2013-2-11,68,63,57,61,55,46,99,76,55,29.99,29.88,17,12,22,0.00
2013-2-12,71,62,57,62,58,57,99,90,66,30.00,29.82,12,6,16,0.02
2013-2-13,66,58,50,58,43,35,93,59,33,30.20,29.98,15,7,21,0.00
2013-2-14,70,57,44,50,43,32,90,62,25,30.16,30.03,11,6,15,0.00
2013-2-15,74,61,50,56,49,42,87,66,43,30.33,30.05,18,7,21,0.00
2013-2-16,69,56,44,43,30,20,63,40,16,30.50,30.27,17,8,24,0.00
2013-2-17,73,59,41,58,46,35,80,64,37,30.29,30.01,23,12,32,0.00
2013-2-18,84,72,66,67,63,58,87,75,55,30.01,29.82,20,14,29,0.00
2013-2-19,69,64,60,64,51,41,92,64,42,30.22,29.98,21,14,26,0.00
2013-2-20,77,70,64,70,66,58,94,86,77,30.03,29.67,23,16,30,0.00
2013-2-21,85,74,67,72,63,50,98,71,40,29.81,29.56,24,13,29,0.00
2013-2-22,74,66,59,53,45,35,73,50,24,29.95,29.80,19,11,27,0.00
2013-2-23,74,62,52,52,45,39,78,55,36,30.05,29.87,16,8,21,0.00
2013-2-24,68,61,51,67,59,48,99,92,78,29.91,29.59,11,5,15,0.00
2013-2-25,74,67,54,71,36,9,99,46,10,29.91,29.52,36,17,47,0.01
2013-2-26,77,60,43,48,28,11,70,36,10,30.03,29.85,12,6,19,0.00
2013-2-27,78,62,49,53,35,14,88,47,10,30.20,29.88,18,8,30,0.00
2013-2-28,66,55,46,29,22,10,46,30,12,30.33,30.20,19,8,28,0.00
2013-3-1,78,59,44,44,27,12,62,34,10,30.31,30.12,12,5,17,0.00
2013-3-2,69,57,45,42,28,14,74,39,12,30.44,30.25,18,9,29,0.00
2013-3-3,79,61,44,54,39,28,75,48,16,30.30,30.00,22,11,31,0.00
2013-3-4,92,72,58,62,54,34,88,61,13,30.01,29.73,23,16,30,0.00
2013-3-5,72,64,52,64,37,9,97,47,10,30.33,29.78,26,13,35,0.00
2013-3-6,67,54,40,44,23,11,70,32,12,30.45,30.23,17,8,24,0.00
2013-3-7,74,63,50,62,55,44,86,75,58,30.24,30.11,19,8,19,0.00
2013-3-8,78,71,66,69,65,62,97,84,68,30.12,30.00,24,13,24,0.04
2013-3-9,80,73,69,69,67,65,93,84,67,29.99,29.64,36,20,36,0.00
2013-3-10,80,68,59,70,44,19,99,49,10,30.08,29.58,34,13,34,0.07
2013-3-11,75,62,49,39,26,10,66,32,10,30.18,30.00,17,7,24,0.00
2013-3-12,81,64,48,50,42,32,67,48,17,30.23,30.07,15,6,27,0.00
2013-3-13,75,63,50,57,48,31,92,63,21,30.42,30.23,15,8,21,0.00
2013-3-14,81,68,56,62,55,51,91,66,37,30.39,30.24,16,8,23,0.00
2013-3-15,84,69,54,62,56,45,90,67,26,30.28,30.03,22,11,28,0.00
2013-3-16,82,71,62,67,63,59,97,78,52,30.05,29.78,27,15,36,0.00
2013-3-17,89,75,66,70,67,64,97,78,48,29.83,29.62,17,13,22,0.00
2013-3-18,92,78,70,70,68,62,94,74,36,29.85,29.69,17,7,22,0.00
2013-3-19,82,72,62,70,66,57,96,82,62,29.97,29.80,15,8,21,0.00
2013-3-20,80,72,64,70,57,44,95,63,38,30.14,29.88,22,13,29,0.00
2013-3-21,77,70,63,68,61,54,89,73,56,30.04,29.67,19,10,24,0.00
2013-3-22,86,76,71,72,70,68,93,83,63,29.72,29.61,18,9,23,0.00
2013-3-23,90,78,71,75,70,64,97,78,43,29.68,29.55,12,6,17,0.00
2013-3-24,72,65,53,67,35,7,98,46,10,30.13,29.64,26,12,35,0.00
2013-3-25,66,55,43,31,22,4,60,32,10,30.36,30.12,17,9,25,0.00
2013-3-26,70,57,44,34,27,13,52,34,12,30.48,30.33,16,8,21,0.00
2013-3-27,72,62,52,57,47,33,72,57,43,30.36,30.19,16,9,23,0.00
2013-3-28,78,70,66,62,60,57,82,70,53,30.21,30.11,17,11,24,0.00
2013-3-29,85,73,64,65,62,60,91,71,46,30.17,30.03,18,11,26,0.00
2013-3-30,86,74,66,70,66,63,92,78,52,30.10,29.91,17,10,22,0.00
2013-3-31,91,77,69,70,69,67,96,78,47,29.95,29.77,18,12,25,0.00
2013-4-1,81,74,69,70,68,66,95,84,64,30.02,29.90,16,8,21,0.00
2013-4-2,82,75,70,73,71,69,99,89,71,29.98,29.75,12,8,19,0.02
2013-4-3,79,68,58,72,60,51,98,77,53,30.11,29.80,19,11,25,0.00
2013-4-4,78,64,54,52,47,41,84,60,27,30.20,30.04,15,10,24,0.00
2013-4-5,73,61,47,55,48,42,83,63,39,30.29,30.07,14,7,18,0.00
2013-4-6,84,70,60,63,59,54,90,69,40,30.11,29.88,21,12,27,0.00
2013-4-7,85,74,65,67,64,62,92,74,49,29.93,29.78,20,13,29,0.00
2013-4-8,83,76,71,72,70,67,93,82,63,29.82,29.64,22,15,30,0.00
2013-4-9,90,79,72,73,72,70,93,79,53,29.71,29.54,28,18,36,0.00
2013-4-10,90,72,60,75,64,48,93,77,42,29.84,29.59,25,15,33,0.00
2013-4-11,78,61,48,51,45,37,93,59,23,29.98,29.76,21,10,27,0.35
2013-4-12,78,66,52,60,55,50,93,71,38,29.98,29.85,14,6,18,0.00
2013-4-13,81,71,64,67,63,60,96,75,54,29.94,29.75,20,10,27,0.00
2013-4-14,96,78,64,73,68,62,97,74,39,29.79,29.62,18,8,22,0.00
2013-4-15,90,79,72,72,70,68,96,76,50,29.80,29.67,22,15,26,0.00
2013-4-16,86,78,75,76,73,71,97,85,65,29.86,29.74,16,12,23,0.00
2013-4-17,88,79,74,76,75,74,99,90,65,29.85,29.62,24,15,30,0.00
2013-4-18,86,72,60,77,64,46,99,79,47,30.05,29.60,22,14,30,0.00
2013-4-19,76,63,54,47,32,13,62,36,10,30.32,30.05,19,10,29,0.00
2013-4-20,76,64,50,54,44,34,77,51,22,30.23,30.02,15,7,21,0.00
2013-4-21,82,72,62,65,58,53,87,65,43,30.10,29.99,18,8,24,0.00
2013-4-22,88,76,68,68,66,62,92,73,42,30.07,29.89,15,9,21,0.00
2013-4-23,84,76,70,72,70,68,94,83,62,29.95,29.81,20,12,27,0.00
2013-4-24,75,58,50,73,53,46,98,83,68,30.21,29.94,23,10,30,0.07
2013-4-25,67,63,60,61,54,48,99,76,59,30.28,30.14,13,7,18,0.00
2013-4-26,81,74,62,75,71,61,99,92,74,30.16,30.01,18,11,23,0.01
2013-4-27,83,76,73,76,72,69,99,88,65,30.08,29.91,15,9,21,0.01
2013-4-28,78,72,66,73,69,65,99,92,79,30.03,29.84,15,7,20,0.08
2013-4-29,86,74,66,74,70,66,99,89,61,29.94,29.76,16,6,20,2.50
2013-4-30,83,74,65,77,71,65,99,89,66,29.82,29.69,16,7,20,0.46
2013-5-1,86,78,72,77,73,71,99,85,64,29.89,29.74,15,8,21,0.00
2013-5-2,80,70,56,73,61,42,99,74,53,30.27,29.83,26,14,36,0.00
2013-5-3,73,62,51,43,29,14,62,33,11,30.33,30.08,23,14,34,0.00
2013-5-4,87,68,52,54,41,22,73,43,10,30.11,29.89,14,7,18,0.00
2013-5-5,88,72,59,58,52,34,81,55,15,30.08,29.95,11,6,17,0.00
2013-5-6,83,72,61,64,58,51,85,62,35,30.12,29.96,12,6,17,0.00
2013-5-7,85,74,62,67,62,58,90,69,45,30.07,29.93,17,7,23,0.00
2013-5-8,88,77,69,72,68,65,93,75,48,30.01,29.89,19,11,26,0.00
2013-5-9,85,79,75,75,74,71,95,85,71,29.95,29.78,19,12,24,0.00
2013-5-10,85,78,76,78,74,67,99,87,63,29.93,29.79,21,10,27,0.00
2013-5-11,89,78,70,72,69,62,99,75,41,30.08,29.92,14,8,19,0.33
2013-5-12,79,70,62,74,66,62,99,89,73,30.18,30.03,12,5,15,2.21
2013-5-13,83,74,64,69,64,58,99,76,44,30.26,30.16,15,6,18,0.00
2013-5-14,88,77,69,76,70,66,93,80,56,30.22,30.05,17,8,24,0.00
2013-5-15,83,77,74,77,74,72,99,90,75,30.10,29.88,24,13,32,0.07
2013-5-16,92,81,72,77,74,72,98,83,59,29.90,29.71,20,14,26,0.00
2013-5-17,94,83,75,77,75,69,98,78,50,29.89,29.76,19,13,28,0.00
2013-5-18,93,83,77,77,73,65,95,75,42,29.90,29.80,23,14,29,0.00
2013-5-19,92,83,77,76,74,69,96,77,48,29.85,29.72,23,17,31,0.00
2013-5-20,91,83,78,77,75,73,95,79,57,29.83,29.70,22,15,29,0.00
2013-5-21,91,83,77,77,76,74,95,81,59,29.79,29.67,19,12,25,0.00
2013-5-22,89,82,77,80,77,75,99,85,67,29.89,29.75,12,7,17,0.18
2013-5-23,93,83,77,79,77,76,97,82,58,29.99,29.85,15,8,20,0.00
2013-5-24,92,82,74,78,76,70,99,83,55,30.07,29.94,16,10,21,0.11
2013-5-25,84,79,72,80,77,72,99,94,78,30.10,29.99,17,11,28,1.39
2013-5-26,90,81,76,78,75,71,99,83,57,30.06,29.95,15,10,19,0.00
2013-5-27,90,82,76,79,76,71,99,82,56,30.01,29.85,19,12,26,0.00
2013-5-28,90,83,78,77,76,74,95,80,61,29.92,29.76,25,17,30,0.00
2013-5-29,88,82,79,78,76,75,93,83,68,29.83,29.72,26,15,32,0.00
2013-5-30,94,85,78,79,77,76,95,79,56,29.82,29.73,18,13,24,0.00
2013-5-31,97,86,79,80,78,76,97,79,53,29.87,29.75,20,12,27,0.00
2013-6-1,98,86,80,79,78,76,92,76,51,29.89,29.76,18,13,26,0.00
2013-6-2,92,83,76,84,77,73,99,84,55,29.99,29.85,12,5,15,0.54
2013-6-3,94,83,73,78,74,71,99,77,50,29.95,29.81,11,5,15,0.00
2013-6-4,93,82,73,78,73,69,99,75,47,29.89,29.79,11,5,17,0.00
2013-6-5,96,84,74,79,74,71,98,76,48,29.86,29.77,14,7,18,0.00
2013-6-6,97,86,76,79,76,72,97,75,45,29.84,29.71,11,5,17,0.00
2013-6-7,94,80,69,81,74,69,99,82,51,29.92,29.81,21,7,27,0.79
2013-6-8,92,79,69,80,74,69,99,86,57,29.91,29.76,14,6,21,0.01
2013-6-9,97,85,78,82,78,67,99,81,47,29.93,29.80,14,8,19,0.00
2013-6-10,95,86,77,81,77,74,99,77,52,29.95,29.89,14,6,17,0.00
2013-6-11,92,84,77,81,77,74,95,81,58,30.00,29.93,14,6,21,0.17
2013-6-12,97,86,79,83,78,68,99,77,40,30.02,29.93,17,9,24,0.00
2013-6-13,93,85,80,82,79,77,97,84,61,30.01,29.89,15,7,23,0.01
2013-6-14,96,86,80,82,80,77,98,84,58,29.96,29.84,14,8,20,0.00
2013-6-15,97,87,80,81,77,70,98,75,43,29.95,29.86,15,9,21,0.00
2013-6-16,99,87,79,81,78,76,96,77,50,29.98,29.90,18,10,24,0.00
2013-6-17,99,88,80,82,78,74,97,75,48,29.95,29.84,18,11,22,0.00
2013-6-18,100,88,79,81,77,71,95,73,41,29.95,29.85,15,10,22,0.00
2013-6-19,98,87,79,79,76,71,96,72,45,29.99,29.88,18,11,22,0.00
2013-6-20,97,87,79,81,77,72,97,75,47,30.03,29.92,16,10,24,0.00
2013-6-21,98,88,79,80,76,68,97,72,39,30.05,29.97,16,10,26,0.00
2013-6-22,98,87,79,82,75,66,99,72,36,30.01,29.90,18,10,24,0.00
2013-6-23,97,87,79,79,76,67,95,71,38,29.97,29.87,18,11,24,0.00
2013-6-24,96,87,80,81,77,71,96,74,45,30.00,29.91,20,13,30,0.00
2013-6-25,97,87,80,80,76,72,96,74,45,29.99,29.88,22,15,27,0.00
2013-6-26,100,88,80,81,77,72,96,74,43,29.95,29.88,19,12,24,0.00
2013-6-27,101,88,78,80,77,71,95,73,38,29.99,29.90,15,9,21,0.00
2013-6-28,102,89,78,80,75,64,97,68,31,29.98,29.81,14,8,19,0.00
2013-6-29,109,92,78,78,70,59,89,55,21,29.86,29.69,13,7,19,0.00
2013-6-30,87,81,74,75,72,69,98,76,56,29.93,29.74,25,6,35,0.22
2013-7-1,102,86,75,76,68,53,99,62,20,29.96,29.83,13,5,17,0.00
2013-7-2,99,87,79,76,64,42,82,53,15,30.02,29.91,12,5,17,0.00
2013-7-3,101,85,75,74,67,56,83,58,23,30.00,29.87,12,6,17,0.00
2013-7-4,95,88,75,76,70,59,90,59,31,29.97,29.88,12,7,19,0.00
2013-7-5,96,86,76,78,72,62,91,67,33,29.95,29.83,14,6,19,0.00
2013-7-6,94,85,74,79,75,71,91,72,49,29.91,29.81,18,8,21,0.00
2013-7-7,97,86,80,80,75,70,93,71,44,29.97,29.85,18,8,25,0.00
2013-7-8,95,85,77,81,77,74,99,79,54,30.09,29.96,18,8,22,0.07
2013-7-9,95,87,79,82,78,74,99,75,53,30.11,30.00,15,8,21,0.00
2013-7-10,97,87,79,82,76,72,95,73,49,30.06,29.94,13,7,19,0.00
2013-7-11,98,87,78,80,75,69,92,70,40,29.99,29.88,15,8,20,0.00
2013-7-12,99,88,78,79,74,69,92,68,39,29.94,29.88,15,8,25,0.00
2013-7-13,99,88,78,79,73,65,90,64,35,29.96,29.85,12,6,18,0.00
2013-7-14,99,88,79,78,74,65,89,67,34,29.90,29.81,16,9,21,0.00
2013-7-15,96,86,81,82,76,73,89,73,49,29.95,29.84,16,10,22,0.06
2013-7-16,88,81,76,80,78,75,99,91,68,30.04,29.92,17,7,22,0.63
2013-7-17,78,76,74,78,76,74,99,99,99,30.13,30.02,14,5,24,1.44
2013-7-18,90,80,74,80,76,74,99,88,62,30.11,29.96,13,6,18,0.19
2013-7-19,94,84,75,83,77,72,99,82,52,30.04,29.90,14,5,18,0.00
2013-7-20,93,84,77,82,78,75,99,85,58,29.97,29.84,12,6,18,0.14
2013-7-21,95,86,79,84,80,77,99,82,56,29.94,29.86,17,10,23,0.00
2013-7-22,96,87,81,83,80,78,99,83,56,29.98,29.88,20,12,26,0.00
2013-7-23,98,87,79,81,79,76,99,78,50,29.99,29.88,18,12,26,0.00
2013-7-24,99,88,80,82,78,75,99,77,48,29.96,29.86,14,10,20,0.00
2013-7-25,100,87,78,83,78,75,99,77,46,30.01,29.94,15,9,20,0.00
2013-7-26,101,88,79,81,78,76,99,76,47,30.02,29.89,18,12,24,0.00
2013-7-27,104,89,80,82,77,70,98,73,33,29.95,29.79,18,9,24,0.00
2013-7-28,99,88,81,81,78,75,96,75,47,29.92,29.84,19,12,28,0.00
2013-7-29,96,87,80,82,78,75,99,77,52,30.03,29.91,19,14,27,0.00
2013-7-30,98,87,80,82,79,73,99,78,46,30.08,29.97,20,12,25,0.00
2013-7-31,101,87,77,81,77,70,99,75,38,30.07,29.94,12,8,18,0.00
2013-8-1,100,88,77,81,76,67,98,71,36,30.00,29.90,13,8,20,0.00
2013-8-2,100,88,78,81,75,67,95,70,34,29.98,29.87,17,8,21,0.00
2013-8-3,101,88,79,80,77,74,93,73,45,30.00,29.92,17,9,21,0.00
2013-8-4,99,89,81,83,77,70,98,72,46,30.03,29.94,18,11,22,0.00
2013-8-5,100,88,80,82,78,73,98,74,45,30.03,29.89,20,12,26,0.00
2013-8-6,102,88,81,82,77,69,99,74,35,29.94,29.83,21,13,30,0.00
2013-8-7,103,89,80,81,77,72,99,73,39,29.91,29.80,20,13,26,0.00
2013-8-8,102,88,80,81,78,72,97,74,39,29.90,29.80,18,11,23,0.00
2013-8-9,99,88,79,81,78,73,97,75,45,29.95,29.85,15,7,21,0.00
2013-8-10,96,86,80,83,79,76,99,82,54,30.00,29.92,15,6,20,0.25
2013-8-11,97,87,79,84,78,72,99,77,46,30.03,29.95,16,6,21,0.00
2013-8-12,97,87,78,80,77,72,98,75,47,30.05,29.94,15,8,21,0.00
2013-8-13,103,89,79,82,77,69,99,72,34,30.03,29.86,15,9,21,0.00
2013-8-14,103,89,79,80,75,60,95,68,25,29.98,29.85,15,9,21,0.00
2013-8-15,99,87,78,79,76,68,90,71,42,29.97,29.87,14,7,20,0.00
2013-8-16,101,89,79,81,76,66,97,70,34,29.99,29.85,18,6,26,0.25
2013-8-17,98,85,75,80,75,68,99,76,38,29.99,29.87,14,7,21,0.02
2013-8-18,98,86,76,81,72,57,99,67,33,30.00,29.93,15,5,19,0.00
2013-8-19,95,84,74,78,71,62,91,67,36,30.02,29.90,14,7,21,0.00
2013-8-20,85,80,77,85,77,74,99,89,79,30.00,29.91,10,5,16,0.12
2013-8-21,94,85,78,83,78,73,99,80,55,30.03,29.96,14,6,18,0.00
2013-8-22,97,86,78,82,77,73,99,76,47,30.04,29.90,12,6,17,0.00
2013-8-23,95,86,79,81,77,72,96,75,50,29.98,29.87,14,6,19,0.00
2013-8-24,96,87,78,81,77,72,99,74,47,29.98,29.90,19,8,23,0.00
2013-8-25,96,86,77,80,77,73,98,75,48,30.03,29.93,13,6,19,0.00
2013-8-26,88,81,78,80,78,75,99,89,70,30.06,29.98,14,5,18,0.13
2013-8-27,94,83,75,85,78,70,99,85,55,30.06,29.97,12,5,18,0.06
2013-8-28,95,85,76,82,77,73,99,80,52,30.07,29.98,16,6,21,0.00
2013-8-29,97,87,78,82,75,62,99,71,32,30.06,29.95,13,5,18,0.00
2013-8-30,98,88,78,80,74,66,93,67,36,30.02,29.88,14,6,21,0.00
2013-8-31,98,87,78,79,74,68,92,68,37,29.94,29.81,14,7,20,0.00
2013-9-1,100,88,78,80,75,68,92,69,36,29.91,29.80,15,8,21,0.00
2013-9-2,100,84,74,82,78,72,99,84,42,29.93,29.82,20,6,27,1.00
2013-9-3,96,85,75,83,76,70,99,78,44,29.99,29.86,10,5,15,0.00
2013-9-4,97,86,77,81,76,69,99,75,42,30.02,29.91,13,5,17,0.00
2013-9-5,94,86,79,81,77,74,95,76,51,30.04,29.96,15,7,21,0.00
2013-9-6,95,85,78,82,77,73,99,78,50,30.05,29.93,13,6,17,0.02
2013-9-7,93,83,77,84,78,76,99,84,58,30.00,29.88,12,5,17,0.26
2013-9-8,87,80,76,82,78,75,99,93,77,29.96,29.85,15,5,20,0.32
2013-9-9,89,81,75,82,77,74,99,89,64,29.93,29.85,16,8,21,0.69
2013-9-10,87,80,75,84,78,74,99,95,77,30.01,29.90,15,6,19,0.52
2013-9-11,89,80,76,82,78,76,99,95,74,30.03,29.94,12,4,20,0.40
2013-9-12,91,82,76,84,78,74,99,87,59,30.00,29.87,14,7,17,0.02
2013-9-13,92,83,75,81,76,73,99,82,56,29.92,29.79,16,8,21,0.00
2013-9-14,92,84,76,82,77,73,99,82,56,29.88,29.80,18,9,21,0.00
2013-9-15,88,82,77,83,79,77,99,91,73,29.92,29.84,21,10,26,0.28
2013-9-16,85,80,76,83,79,76,99,97,84,29.96,29.87,18,8,23,0.99
2013-9-17,90,82,77,84,79,76,99,90,69,29.97,29.88,16,7,22,0.35
2013-9-18,88,81,77,83,79,76,99,92,76,29.96,29.85,15,6,21,0.15
2013-9-19,90,83,78,84,80,77,99,89,70,29.89,29.78,14,6,19,0.01
2013-9-20,90,82,75,85,81,75,99,96,76,29.82,29.67,15,7,22,1.84
2013-9-21,81,75,72,77,73,70,99,94,77,29.83,29.71,17,9,26,2.51
2013-9-22,88,77,66,70,65,58,94,69,38,29.83,29.72,12,6,17,0.00
2013-9-23,93,79,66,76,70,62,99,76,44,29.81,29.70,10,4,16,0.00
2013-9-24,96,84,72,76,72,66,99,71,39,29.89,29.77,8,4,13,0.00
2013-9-25,96,84,73,76,70,51,99,70,23,29.88,29.76,9,5,14,0.00
2013-9-26,95,83,75,82,76,71,99,82,47,29.86,29.78,10,5,18,0.00
2013-9-27,94,86,79,84,80,78,99,84,60,29.88,29.78,16,9,21,0.00
2013-9-28,95,86,80,84,80,76,99,84,54,29.93,29.82,16,10,21,0.01
2013-9-29,95,83,76,80,78,76,99,85,56,30.00,29.85,9,4,13,0.85
2013-9-30,92,81,72,80,77,72,99,88,60,29.91,29.77,9,5,16,0.00
2013-10-1,95,84,77,84,79,77,99,87,58,29.89,29.78,12,7,21,0.00
2013-10-2,94,84,77,82,78,74,99,85,53,29.92,29.82,12,6,17,0.02
2013-10-3,93,84,77,82,76,70,99,81,48,29.91,29.82,13,6,17,0.00
2013-10-4,94,83,75,81,76,74,99,82,52,29.90,29.81,13,7,20,0.00
2013-10-5,93,83,74,81,77,73,99,84,58,29.92,29.82,13,5,18,0.00
2013-10-6,81,71,58,80,56,43,99,65,26,30.11,29.91,16,8,23,0.12
2013-10-7,88,72,59,59,50,30,83,53,13,30.16,30.02,12,5,15,0.00
2013-10-8,86,73,60,63,58,51,87,62,32,30.08,29.96,12,4,17,0.00
2013-10-9,89,77,66,70,66,62,92,71,44,30.03,29.92,13,5,21,0.00
2013-10-10,90,80,71,74,70,68,92,74,50,29.99,29.87,14,7,24,0.00
2013-10-11,94,84,78,81,78,74,97,83,59,29.89,29.79,16,10,22,0.00
2013-10-12,94,85,79,84,79,76,99,85,56,29.98,29.86,17,9,22,0.00
2013-10-13,90,82,79,82,79,74,99,89,62,30.08,29.95,16,8,21,0.28
2013-10-14,86,81,77,80,77,74,99,88,71,30.05,29.89,15,8,19,0.02
2013-10-15,90,81,74,78,74,70,99,81,55,29.95,29.83,13,6,17,0.00
2013-10-16,84,76,65,78,70,62,99,83,61,30.04,29.86,13,8,18,0.00
2013-10-17,83,71,64,65,61,57,90,72,48,30.08,29.96,11,7,15,0.00
2013-10-18,83,74,68,79,71,62,99,91,73,29.99,29.82,9,6,13,0.74
2013-10-19,73,64,62,72,63,59,99,94,87,30.17,29.92,19,12,24,0.01
2013-10-20,62,62,62,60,60,60,91,91,91,30.12,29.93,13,13,14,0.01
2013-10-21,78,64,62,78,62,60,99,92,91,29.98,29.83,13,12,14,0.01
2013-10-22,81,70,60,71,60,49,99,74,43,30.11,30.00,16,8,16,0.01
2013-10-23,82,67,53,56,51,41,93,63,24,30.19,30.08,8,4,8,0.00
2013-10-24,82,70,56,66,60,54,95,74,44,30.20,30.11,12,4,12,0.00
2013-10-25,82,77,63,71,67,63,99,73,60,30.26,30.17,17,10,21,0.00
2013-10-26,86,77,71,71,68,66,92,76,53,30.18,30.06,14,8,21,0.00
2013-10-27,88,77,67,76,71,66,99,83,49,30.07,29.95,12,5,17,0.00
2013-10-28,88,78,71,77,73,70,99,85,60,30.05,29.96,16,9,23,0.00
2013-10-29,88,80,75,78,75,73,98,84,63,30.06,29.94,16,11,24,0.00
2013-10-30,89,82,78,80,78,76,99,89,65,29.99,29.81,23,13,30,0.01
2013-10-31,91,82,74,81,74,62,99,80,45,29.88,29.77,16,7,21,0.01
2013-11-1,90,76,68,76,71,68,98,85,53,30.00,29.80,12,4,16,0.08
2013-11-2,70,67,65,66,54,48,84,63,49,30.24,30.00,12,4,16,0.00
2013-11-3,67,67,67,54,54,54,63,63,63,30.22,30.00,4,4,4,0.00
2013-11-4,67,52,0,54,54,54,63,49,63,30.03,29.80,4,3,4,0.00
2013-11-5,0,0,0,54,54,54,0,0,100,29.87,29.78,0,0,0,0.00
2013-11-6,0,0,0,54,54,54,0,0,100,30.13,29.83,0,0,0,0.00
2013-11-7,0,0,0,54,54,54,0,0,100,30.30,30.14,0,0,0,0.00
2013-11-8,0,0,0,54,54,54,0,0,100,30.25,30.06,0,0,0,0.00
2013-11-9,0,0,0,54,54,54,0,0,100,30.06,29.99,0,0,0,0.00
2013-11-10,0,0,0,54,54,54,0,0,100,30.14,30.02,0,0,0,0.00
2013-11-11,0,0,0,54,54,54,0,0,100,30.12,30.00,0,0,0,0.00
2013-11-12,0,0,0,54,54,54,0,0,100,30.43,30.09,0,0,0,0.00
2013-11-13,0,0,0,54,54,54,0,0,100,30.51,30.32,0,0,0,0.00
2013-11-14,66,53,0,58,53,35,89,61,46,30.31,30.02,9,3,11,0.04
2013-11-15,82,67,55,66,60,53,95,79,46,30.02,29.85,12,5,17,0.00
2013-11-16,82,74,68,77,72,66,99,92,75,29.90,29.75,17,10,23,0.00
2013-11-17,88,78,73,74,73,71,97,85,57,29.90,29.76,12,8,18,0.00
2013-11-18,83,75,70,76,72,64,99,90,74,30.04,29.89,12,5,17,0.00
2013-11-19,74,70,67,64,61,56,88,73,63,30.06,29.95,15,11,20,0.00
2013-11-20,82,74,67,74,69,63,95,86,71,29.96,29.81,14,9,17,0.00
2013-11-21,86,78,74,77,74,73,99,88,67,30.01,29.89,17,10,24,0.00
2013-11-22,76,58,41,76,58,41,99,99,89,30.30,29.99,20,11,28,2.17
2013-11-23,48,43,40,44,42,39,99,95,83,30.40,30.30,18,12,24,0.01
2013-11-24,47,45,41,45,42,37,99,92,85,30.41,30.28,13,9,20,0.09
2013-11-25,45,42,40,45,41,38,99,97,89,30.27,30.03,14,10,19,0.39
2013-11-26,50,45,42,43,39,36,99,82,59,30.36,30.10,24,11,30,0.08
2013-11-27,54,45,39,38,32,24,85,64,34,30.48,30.35,15,7,19,0.00
2013-11-28,60,48,37,45,39,32,88,71,52,30.44,30.32,9,5,11,0.00
2013-11-29,69,56,46,59,51,44,97,86,67,30.44,30.34,16,9,21,0.00
2013-11-30,75,62,51,63,56,50,95,82,59,30.35,30.19,13,5,16,0.00
2013-12-1,79,67,56,66,61,54,97,83,58,30.20,29.95,10,4,14,0.00
2013-12-2,80,67,58,68,62,57,98,86,59,29.95,29.70,9,5,13,0.01
2013-12-3,84,70,60,69,64,60,99,84,53,29.75,29.60,12,7,15,0.01
2013-12-4,84,76,70,72,71,69,97,83,65,29.78,29.67,12,9,17,0.00
2013-12-5,80,64,44,72,60,36,99,85,66,30.00,29.75,19,10,24,0.00
2013-12-6,49,42,36,37,34,28,89,76,62,30.38,29.99,18,13,24,0.00
2013-12-7,36,35,34,31,29,27,89,79,73,30.44,30.27,17,9,21,0.00
2013-12-8,48,41,34,45,38,31,97,90,77,30.28,30.04,8,5,12,0.01
2013-12-9,55,48,42,54,47,40,99,97,92,30.29,30.01,17,9,24,0.06
2013-12-10,50,43,37,40,33,28,96,69,43,30.48,30.30,16,9,24,0.00
2013-12-11,56,50,45,39,36,33,67,58,46,30.49,30.30,9,5,13,0.00
2013-12-12,58,52,46,41,37,35,71,57,44,30.56,30.33,12,7,17,0.00
2013-12-13,68,57,48,57,47,39,80,71,59,30.34,29.86,10,5,14,0.00
2013-12-14,71,58,45,54,46,36,90,66,28,30.33,29.87,20,9,25,0.00
2013-12-15,62,48,39,38,34,28,82,61,29,30.44,30.29,9,4,12,0.00
2013-12-16,68,51,36,46,38,27,85,64,22,30.35,30.22,8,3,10,0.00
2013-12-17,71,49,41,54,44,39,94,86,48,30.33,30.22,11,3,11,0.00
2013-12-18,74,64,49,58,55,46,91,73,49,30.29,30.07,17,7,17,0.00
2013-12-19,79,70,62,67,63,57,94,80,62,30.07,29.79,22,14,27,0.00
2013-12-20,82,73,67,71,69,65,98,88,68,29.83,29.62,26,16,34,0.00
2013-12-21,81,72,61,72,64,54,94,78,50,29.79,29.55,25,11,37,0.01
2013-12-22,74,62,48,56,45,33,89,59,23,30.33,29.78,18,9,28,0.00
2013-12-23,61,48,39,36,29,18,75,50,19,30.53,30.33,15,7,19,0.00
2013-12-24,63,50,36,48,39,30,82,67,41,30.53,30.25,11,6,15,0.00
2013-12-25,69,57,48,59,52,44,95,85,63,30.31,30.19,10,6,14,0.04
2013-12-26,58,53,50,57,51,48,97,91,78,30.38,30.27,12,8,16,0.11
2013-12-27,58,53,49,53,50,49,99,92,78,30.40,30.30,9,5,11,0.12
2013-12-28,63,54,48,50,44,37,96,75,39,30.30,30.04,6,3,8,0.00
2013-12-29,69,56,45,54,47,41,89,73,50,30.08,29.98,9,3,12,0.00
2013-12-30,46,45,42,36,34,32,74,67,63,30.39,30.25,16,8,20,0.01
2013-12-31,47,46,42,44,40,32,92,80,58,30.45,30.26,11,3,11,0.08
2014-1-1,58,52,46,57,50,43,97,91,78,30.27,29.99,5,3,8,0.01
2014-1-2,58,52,41,57,38,27,97,63,34,30.46,30.04,21,10,30,0.00